Netzbetreibername:;Energie- und Wasserversorgung Altenburg GmbH;
gesetzliche Grundlage:;� 23c Abs. 2 Nr. 6 StromNZV (Lastgangtyp: Summe aller Einspeisungen Niederspannung);
Einheit:;kW;
Betrachtungszeitraum:;01.01.2022 bis 31.12.2022;
;;
;;
;;
Datum;Zeit;Wirkleistung (kW)
;;
01.01.2022;00:15:00;83
01.01.2022;00:30:00;75
01.01.2022;00:45:00;76
01.01.2022;01:00:00;72
01.01.2022;01:15:00;71
01.01.2022;01:30:00;75
01.01.2022;01:45:00;73
01.01.2022;02:00:00;73
01.01.2022;02:15:00;73
01.01.2022;02:30:00;76
01.01.2022;02:45:00;82
01.01.2022;03:00:00;83
01.01.2022;03:15:00;76
01.01.2022;03:30:00;75
01.01.2022;03:45:00;75
01.01.2022;04:00:00;76
01.01.2022;04:15:00;74
01.01.2022;04:30:00;82
01.01.2022;04:45:00;89
01.01.2022;05:00:00;83
01.01.2022;05:15:00;79
01.01.2022;05:30:00;80
01.01.2022;05:45:00;78
01.01.2022;06:00:00;46
01.01.2022;06:15:00;27
01.01.2022;06:30:00;21
01.01.2022;06:45:00;22
01.01.2022;07:00:00;22
01.01.2022;07:15:00;21
01.01.2022;07:30:00;21
01.01.2022;07:45:00;21
01.01.2022;08:00:00;20
01.01.2022;08:15:00;20
01.01.2022;08:30:00;21
01.01.2022;08:45:00;23
01.01.2022;09:00:00;28
01.01.2022;09:15:00;30
01.01.2022;09:30:00;38
01.01.2022;09:45:00;45
01.01.2022;10:00:00;48
01.01.2022;10:15:00;58
01.01.2022;10:30:00;62
01.01.2022;10:45:00;79
01.01.2022;11:00:00;96
01.01.2022;11:15:00;90
01.01.2022;11:30:00;97
01.01.2022;11:45:00;115
01.01.2022;12:00:00;113
01.01.2022;12:15:00;106
01.01.2022;12:30:00;131
01.01.2022;12:45:00;139
01.01.2022;13:00:00;139
01.01.2022;13:15:00;137
01.01.2022;13:30:00;125
01.01.2022;13:45:00;110
01.01.2022;14:00:00;119
01.01.2022;14:15:00;115
01.01.2022;14:30:00;113
01.01.2022;14:45:00;102
01.01.2022;15:00:00;121
01.01.2022;15:15:00;114
01.01.2022;15:30:00;99
01.01.2022;15:45:00;72
01.01.2022;16:00:00;70
01.01.2022;16:15:00;76
01.01.2022;16:30:00;74
01.01.2022;16:45:00;76
01.01.2022;17:00:00;55
01.01.2022;17:15:00;23
01.01.2022;17:30:00;26
01.01.2022;17:45:00;29
01.01.2022;18:00:00;27
01.01.2022;18:15:00;17
01.01.2022;18:30:00;16
01.01.2022;18:45:00;21
01.01.2022;19:00:00;22
01.01.2022;19:15:00;21
01.01.2022;19:30:00;24
01.01.2022;19:45:00;32
01.01.2022;20:00:00;25
01.01.2022;20:15:00;31
01.01.2022;20:30:00;37
01.01.2022;20:45:00;37
01.01.2022;21:00:00;35
01.01.2022;21:15:00;36
01.01.2022;21:30:00;37
01.01.2022;21:45:00;36
01.01.2022;22:00:00;38
01.01.2022;22:15:00;47
01.01.2022;22:30:00;51
01.01.2022;22:45:00;52
01.01.2022;23:00:00;53
01.01.2022;23:15:00;50
01.01.2022;23:30:00;52
01.01.2022;23:45:00;50
02.01.2022;00:00:00;46
02.01.2022;00:15:00;51
02.01.2022;00:30:00;52
02.01.2022;00:45:00;90
02.01.2022;01:00:00;98
02.01.2022;01:15:00;97
02.01.2022;01:30:00;99
02.01.2022;01:45:00;97
02.01.2022;02:00:00;98
02.01.2022;02:15:00;96
02.01.2022;02:30:00;96
02.01.2022;02:45:00;95
02.01.2022;03:00:00;96
02.01.2022;03:15:00;95
02.01.2022;03:30:00;97
02.01.2022;03:45:00;97
02.01.2022;04:00:00;97
02.01.2022;04:15:00;96
02.01.2022;04:30:00;93
02.01.2022;04:45:00;97
02.01.2022;05:00:00;98
02.01.2022;05:15:00;83
02.01.2022;05:30:00;83
02.01.2022;05:45:00;81
02.01.2022;06:00:00;74
02.01.2022;06:15:00;67
02.01.2022;06:30:00;66
02.01.2022;06:45:00;66
02.01.2022;07:00:00;66
02.01.2022;07:15:00;66
02.01.2022;07:30:00;46
02.01.2022;07:45:00;20
02.01.2022;08:00:00;20
02.01.2022;08:15:00;20
02.01.2022;08:30:00;21
02.01.2022;08:45:00;25
02.01.2022;09:00:00;36
02.01.2022;09:15:00;45
02.01.2022;09:30:00;37
02.01.2022;09:45:00;53
02.01.2022;10:00:00;45
02.01.2022;10:15:00;30
02.01.2022;10:30:00;57
02.01.2022;10:45:00;80
02.01.2022;11:00:00;101
02.01.2022;11:15:00;68
02.01.2022;11:30:00;41
02.01.2022;11:45:00;34
02.01.2022;12:00:00;40
02.01.2022;12:15:00;56
02.01.2022;12:30:00;70
02.01.2022;12:45:00;102
02.01.2022;13:00:00;59
02.01.2022;13:15:00;27
02.01.2022;13:30:00;23
02.01.2022;13:45:00;40
02.01.2022;14:00:00;44
02.01.2022;14:15:00;68
02.01.2022;14:30:00;85
02.01.2022;14:45:00;22
02.01.2022;15:00:00;50
02.01.2022;15:15:00;16
02.01.2022;15:30:00;39
02.01.2022;15:45:00;71
02.01.2022;16:00:00;57
02.01.2022;16:15:00;63
02.01.2022;16:30:00;63
02.01.2022;16:45:00;64
02.01.2022;17:00:00;65
02.01.2022;17:15:00;64
02.01.2022;17:30:00;66
02.01.2022;17:45:00;66
02.01.2022;18:00:00;69
02.01.2022;18:15:00;66
02.01.2022;18:30:00;66
02.01.2022;18:45:00;65
02.01.2022;19:00:00;66
02.01.2022;19:15:00;68
02.01.2022;19:30:00;71
02.01.2022;19:45:00;76
02.01.2022;20:00:00;74
02.01.2022;20:15:00;69
02.01.2022;20:30:00;74
02.01.2022;20:45:00;80
02.01.2022;21:00:00;69
02.01.2022;21:15:00;34
02.01.2022;21:30:00;36
02.01.2022;21:45:00;35
02.01.2022;22:00:00;38
02.01.2022;22:15:00;51
02.01.2022;22:30:00;50
02.01.2022;22:45:00;50
02.01.2022;23:00:00;50
02.01.2022;23:15:00;52
02.01.2022;23:30:00;53
02.01.2022;23:45:00;52
03.01.2022;00:00:00;50
03.01.2022;00:15:00;47
03.01.2022;00:30:00;49
03.01.2022;00:45:00;43
03.01.2022;01:00:00;45
03.01.2022;01:15:00;50
03.01.2022;01:30:00;49
03.01.2022;01:45:00;49
03.01.2022;02:00:00;51
03.01.2022;02:15:00;51
03.01.2022;02:30:00;52
03.01.2022;02:45:00;74
03.01.2022;03:00:00;99
03.01.2022;03:15:00;98
03.01.2022;03:30:00;99
03.01.2022;03:45:00;97
03.01.2022;04:00:00;98
03.01.2022;04:15:00;97
03.01.2022;04:30:00;92
03.01.2022;04:45:00;92
03.01.2022;05:00:00;80
03.01.2022;05:15:00;82
03.01.2022;05:30:00;77
03.01.2022;05:45:00;73
03.01.2022;06:00:00;76
03.01.2022;06:15:00;63
03.01.2022;06:30:00;63
03.01.2022;06:45:00;64
03.01.2022;07:00:00;63
03.01.2022;07:15:00;59
03.01.2022;07:30:00;56
03.01.2022;07:45:00;55
03.01.2022;08:00:00;54
03.01.2022;08:15:00;50
03.01.2022;08:30:00;49
03.01.2022;08:45:00;59
03.01.2022;09:00:00;69
03.01.2022;09:15:00;68
03.01.2022;09:30:00;61
03.01.2022;09:45:00;80
03.01.2022;10:00:00;104
03.01.2022;10:15:00;97
03.01.2022;10:30:00;85
03.01.2022;10:45:00;67
03.01.2022;11:00:00;97
03.01.2022;11:15:00;164
03.01.2022;11:30:00;169
03.01.2022;11:45:00;174
03.01.2022;12:00:00;144
03.01.2022;12:15:00;65
03.01.2022;12:30:00;127
03.01.2022;12:45:00;177
03.01.2022;13:00:00;37
03.01.2022;13:15:00;149
03.01.2022;13:30:00;162
03.01.2022;13:45:00;210
03.01.2022;14:00:00;173
03.01.2022;14:15:00;104
03.01.2022;14:30:00;82
03.01.2022;14:45:00;86
03.01.2022;15:00:00;53
03.01.2022;15:15:00;36
03.01.2022;15:30:00;13
03.01.2022;15:45:00;19
03.01.2022;16:00:00;8
03.01.2022;16:15:00;0
03.01.2022;16:30:00;3
03.01.2022;16:45:00;6
03.01.2022;17:00:00;5
03.01.2022;17:15:00;27
03.01.2022;17:30:00;50
03.01.2022;17:45:00;54
03.01.2022;18:00:00;53
03.01.2022;18:15:00;50
03.01.2022;18:30:00;46
03.01.2022;18:45:00;46
03.01.2022;19:00:00;50
03.01.2022;19:15:00;46
03.01.2022;19:30:00;49
03.01.2022;19:45:00;55
03.01.2022;20:00:00;58
03.01.2022;20:15:00;58
03.01.2022;20:30:00;63
03.01.2022;20:45:00;65
03.01.2022;21:00:00;60
03.01.2022;21:15:00;64
03.01.2022;21:30:00;73
03.01.2022;21:45:00;79
03.01.2022;22:00:00;83
03.01.2022;22:15:00;92
03.01.2022;22:30:00;89
03.01.2022;22:45:00;94
03.01.2022;23:00:00;57
03.01.2022;23:15:00;50
03.01.2022;23:30:00;52
03.01.2022;23:45:00;54
04.01.2022;00:00:00;52
04.01.2022;00:15:00;54
04.01.2022;00:30:00;54
04.01.2022;00:45:00;50
04.01.2022;01:00:00;51
04.01.2022;01:15:00;52
04.01.2022;01:30:00;50
04.01.2022;01:45:00;56
04.01.2022;02:00:00;56
04.01.2022;02:15:00;55
04.01.2022;02:30:00;54
04.01.2022;02:45:00;55
04.01.2022;03:00:00;55
04.01.2022;03:15:00;55
04.01.2022;03:30:00;56
04.01.2022;03:45:00;55
04.01.2022;04:00:00;55
04.01.2022;04:15:00;52
04.01.2022;04:30:00;53
04.01.2022;04:45:00;54
04.01.2022;05:00:00;41
04.01.2022;05:15:00;35
04.01.2022;05:30:00;33
04.01.2022;05:45:00;31
04.01.2022;06:00:00;32
04.01.2022;06:15:00;18
04.01.2022;06:30:00;17
04.01.2022;06:45:00;18
04.01.2022;07:00:00;15
04.01.2022;07:15:00;9
04.01.2022;07:30:00;38
04.01.2022;07:45:00;56
04.01.2022;08:00:00;55
04.01.2022;08:15:00;55
04.01.2022;08:30:00;49
04.01.2022;08:45:00;46
04.01.2022;09:00:00;47
04.01.2022;09:15:00;49
04.01.2022;09:30:00;52
04.01.2022;09:45:00;54
04.01.2022;10:00:00;56
04.01.2022;10:15:00;57
04.01.2022;10:30:00;58
04.01.2022;10:45:00;63
04.01.2022;11:00:00;81
04.01.2022;11:15:00;73
04.01.2022;11:30:00;83
04.01.2022;11:45:00;97
04.01.2022;12:00:00;93
04.01.2022;12:15:00;100
04.01.2022;12:30:00;98
04.01.2022;12:45:00;98
04.01.2022;13:00:00;97
04.01.2022;13:15:00;84
04.01.2022;13:30:00;76
04.01.2022;13:45:00;44
04.01.2022;14:00:00;25
04.01.2022;14:15:00;30
04.01.2022;14:30:00;27
04.01.2022;14:45:00;24
04.01.2022;15:00:00;20
04.01.2022;15:15:00;22
04.01.2022;15:30:00;10
04.01.2022;15:45:00;9
04.01.2022;16:00:00;3
04.01.2022;16:15:00;1
04.01.2022;16:30:00;0
04.01.2022;16:45:00;1
04.01.2022;17:00:00;3
04.01.2022;17:15:00;2
04.01.2022;17:30:00;4
04.01.2022;17:45:00;2
04.01.2022;18:00:00;7
04.01.2022;18:15:00;2
04.01.2022;18:30:00;0
04.01.2022;18:45:00;1
04.01.2022;19:00:00;2
04.01.2022;19:15:00;3
04.01.2022;19:30:00;3
04.01.2022;19:45:00;6
04.01.2022;20:00:00;14
04.01.2022;20:15:00;16
04.01.2022;20:30:00;14
04.01.2022;20:45:00;14
04.01.2022;21:00:00;14
04.01.2022;21:15:00;13
04.01.2022;21:30:00;24
04.01.2022;21:45:00;32
04.01.2022;22:00:00;36
04.01.2022;22:15:00;50
04.01.2022;22:30:00;48
04.01.2022;22:45:00;48
04.01.2022;23:00:00;49
04.01.2022;23:15:00;51
04.01.2022;23:30:00;52
04.01.2022;23:45:00;51
05.01.2022;00:00:00;46
05.01.2022;00:15:00;47
05.01.2022;00:30:00;49
05.01.2022;00:45:00;52
05.01.2022;01:00:00;51
05.01.2022;01:15:00;48
05.01.2022;01:30:00;50
05.01.2022;01:45:00;53
05.01.2022;02:00:00;52
05.01.2022;02:15:00;51
05.01.2022;02:30:00;89
05.01.2022;02:45:00;97
05.01.2022;03:00:00;98
05.01.2022;03:15:00;96
05.01.2022;03:30:00;95
05.01.2022;03:45:00;88
05.01.2022;04:00:00;81
05.01.2022;04:15:00;80
05.01.2022;04:30:00;79
05.01.2022;04:45:00;79
05.01.2022;05:00:00;79
05.01.2022;05:15:00;81
05.01.2022;05:30:00;78
05.01.2022;05:45:00;73
05.01.2022;06:00:00;64
05.01.2022;06:15:00;64
05.01.2022;06:30:00;66
05.01.2022;06:45:00;59
05.01.2022;07:00:00;55
05.01.2022;07:15:00;56
05.01.2022;07:30:00;56
05.01.2022;07:45:00;55
05.01.2022;08:00:00;54
05.01.2022;08:15:00;47
05.01.2022;08:30:00;46
05.01.2022;08:45:00;25
05.01.2022;09:00:00;0
05.01.2022;09:15:00;1
05.01.2022;09:30:00;1
05.01.2022;09:45:00;4
05.01.2022;10:00:00;9
05.01.2022;10:15:00;19
05.01.2022;10:30:00;22
05.01.2022;10:45:00;19
05.01.2022;11:00:00;50
05.01.2022;11:15:00;109
05.01.2022;11:30:00;144
05.01.2022;11:45:00;177
05.01.2022;12:00:00;191
05.01.2022;12:15:00;131
05.01.2022;12:30:00;134
05.01.2022;12:45:00;235
05.01.2022;13:00:00;217
05.01.2022;13:15:00;196
05.01.2022;13:30:00;124
05.01.2022;13:45:00;125
05.01.2022;14:00:00;76
05.01.2022;14:15:00;160
05.01.2022;14:30:00;82
05.01.2022;14:45:00;47
05.01.2022;15:00:00;22
05.01.2022;15:15:00;43
05.01.2022;15:30:00;33
05.01.2022;15:45:00;9
05.01.2022;16:00:00;4
05.01.2022;16:15:00;2
05.01.2022;16:30:00;0
05.01.2022;16:45:00;0
05.01.2022;17:00:00;0
05.01.2022;17:15:00;0
05.01.2022;17:30:00;28
05.01.2022;17:45:00;46
05.01.2022;18:00:00;46
05.01.2022;18:15:00;46
05.01.2022;18:30:00;46
05.01.2022;18:45:00;46
05.01.2022;19:00:00;46
05.01.2022;19:15:00;47
05.01.2022;19:30:00;48
05.01.2022;19:45:00;47
05.01.2022;20:00:00;50
05.01.2022;20:15:00;51
05.01.2022;20:30:00;58
05.01.2022;20:45:00;54
05.01.2022;21:00:00;58
05.01.2022;21:15:00;58
05.01.2022;21:30:00;61
05.01.2022;21:45:00;63
05.01.2022;22:00:00;65
05.01.2022;22:15:00;82
05.01.2022;22:30:00;82
05.01.2022;22:45:00;85
05.01.2022;23:00:00;88
05.01.2022;23:15:00;89
05.01.2022;23:30:00;85
05.01.2022;23:45:00;86
06.01.2022;00:00:00;80
06.01.2022;00:15:00;74
06.01.2022;00:30:00;39
06.01.2022;00:45:00;33
06.01.2022;01:00:00;31
06.01.2022;01:15:00;33
06.01.2022;01:30:00;35
06.01.2022;01:45:00;36
06.01.2022;02:00:00;37
06.01.2022;02:15:00;38
06.01.2022;02:30:00;38
06.01.2022;02:45:00;38
06.01.2022;03:00:00;39
06.01.2022;03:15:00;38
06.01.2022;03:30:00;38
06.01.2022;03:45:00;38
06.01.2022;04:00:00;38
06.01.2022;04:15:00;38
06.01.2022;04:30:00;38
06.01.2022;04:45:00;37
06.01.2022;05:00:00;36
06.01.2022;05:15:00;36
06.01.2022;05:30:00;34
06.01.2022;05:45:00;27
06.01.2022;06:00:00;19
06.01.2022;06:15:00;19
06.01.2022;06:30:00;19
06.01.2022;06:45:00;19
06.01.2022;07:00:00;18
06.01.2022;07:15:00;16
06.01.2022;07:30:00;12
06.01.2022;07:45:00;10
06.01.2022;08:00:00;10
06.01.2022;08:15:00;10
06.01.2022;08:30:00;36
06.01.2022;08:45:00;60
06.01.2022;09:00:00;62
06.01.2022;09:15:00;68
06.01.2022;09:30:00;81
06.01.2022;09:45:00;109
06.01.2022;10:00:00;105
06.01.2022;10:15:00;115
06.01.2022;10:30:00;104
06.01.2022;10:45:00;120
06.01.2022;11:00:00;141
06.01.2022;11:15:00;168
06.01.2022;11:30:00;217
06.01.2022;11:45:00;292
06.01.2022;12:00:00;193
06.01.2022;12:15:00;276
06.01.2022;12:30:00;223
06.01.2022;12:45:00;240
06.01.2022;13:00:00;303
06.01.2022;13:15:00;282
06.01.2022;13:30:00;268
06.01.2022;13:45:00;231
06.01.2022;14:00:00;242
06.01.2022;14:15:00;201
06.01.2022;14:30:00;195
06.01.2022;14:45:00;170
06.01.2022;15:00:00;147
06.01.2022;15:15:00;108
06.01.2022;15:30:00;43
06.01.2022;15:45:00;32
06.01.2022;16:00:00;24
06.01.2022;16:15:00;16
06.01.2022;16:30:00;7
06.01.2022;16:45:00;4
06.01.2022;17:00:00;1
06.01.2022;17:15:00;2
06.01.2022;17:30:00;5
06.01.2022;17:45:00;10
06.01.2022;18:00:00;8
06.01.2022;18:15:00;1
06.01.2022;18:30:00;2
06.01.2022;18:45:00;1
06.01.2022;19:00:00;7
06.01.2022;19:15:00;5
06.01.2022;19:30:00;7
06.01.2022;19:45:00;17
06.01.2022;20:00:00;17
06.01.2022;20:15:00;21
06.01.2022;20:30:00;21
06.01.2022;20:45:00;19
06.01.2022;21:00:00;20
06.01.2022;21:15:00;19
06.01.2022;21:30:00;21
06.01.2022;21:45:00;29
06.01.2022;22:00:00;33
06.01.2022;22:15:00;44
06.01.2022;22:30:00;42
06.01.2022;22:45:00;45
06.01.2022;23:00:00;36
06.01.2022;23:15:00;34
06.01.2022;23:30:00;60
06.01.2022;23:45:00;81
07.01.2022;00:00:00;81
07.01.2022;00:15:00;84
07.01.2022;00:30:00;83
07.01.2022;00:45:00;81
07.01.2022;01:00:00;81
07.01.2022;01:15:00;84
07.01.2022;01:30:00;84
07.01.2022;01:45:00;86
07.01.2022;02:00:00;85
07.01.2022;02:15:00;86
07.01.2022;02:30:00;86
07.01.2022;02:45:00;86
07.01.2022;03:00:00;85
07.01.2022;03:15:00;85
07.01.2022;03:30:00;85
07.01.2022;03:45:00;84
07.01.2022;04:00:00;84
07.01.2022;04:15:00;85
07.01.2022;04:30:00;83
07.01.2022;04:45:00;83
07.01.2022;05:00:00;82
07.01.2022;05:15:00;82
07.01.2022;05:30:00;75
07.01.2022;05:45:00;74
07.01.2022;06:00:00;74
07.01.2022;06:15:00;68
07.01.2022;06:30:00;64
07.01.2022;06:45:00;65
07.01.2022;07:00:00;64
07.01.2022;07:15:00;63
07.01.2022;07:30:00;57
07.01.2022;07:45:00;58
07.01.2022;08:00:00;54
07.01.2022;08:15:00;55
07.01.2022;08:30:00;45
07.01.2022;08:45:00;15
07.01.2022;09:00:00;22
07.01.2022;09:15:00;40
07.01.2022;09:30:00;51
07.01.2022;09:45:00;57
07.01.2022;10:00:00;66
07.01.2022;10:15:00;80
07.01.2022;10:30:00;86
07.01.2022;10:45:00;107
07.01.2022;11:00:00;133
07.01.2022;11:15:00;161
07.01.2022;11:30:00;155
07.01.2022;11:45:00;145
07.01.2022;12:00:00;168
07.01.2022;12:15:00;218
07.01.2022;12:30:00;191
07.01.2022;12:45:00;121
07.01.2022;13:00:00;109
07.01.2022;13:15:00;85
07.01.2022;13:30:00;57
07.01.2022;13:45:00;37
07.01.2022;14:00:00;40
07.01.2022;14:15:00;43
07.01.2022;14:30:00;44
07.01.2022;14:45:00;34
07.01.2022;15:00:00;53
07.01.2022;15:15:00;44
07.01.2022;15:30:00;19
07.01.2022;15:45:00;4
07.01.2022;16:00:00;8
07.01.2022;16:15:00;52
07.01.2022;16:30:00;56
07.01.2022;16:45:00;50
07.01.2022;17:00:00;52
07.01.2022;17:15:00;53
07.01.2022;17:30:00;50
07.01.2022;17:45:00;57
07.01.2022;18:00:00;49
07.01.2022;18:15:00;53
07.01.2022;18:30:00;51
07.01.2022;18:45:00;51
07.01.2022;19:00:00;47
07.01.2022;19:15:00;53
07.01.2022;19:30:00;57
07.01.2022;19:45:00;56
07.01.2022;20:00:00;60
07.01.2022;20:15:00;61
07.01.2022;20:30:00;59
07.01.2022;20:45:00;67
07.01.2022;21:00:00;67
07.01.2022;21:15:00;68
07.01.2022;21:30:00;69
07.01.2022;21:45:00;75
07.01.2022;22:00:00;78
07.01.2022;22:15:00;87
07.01.2022;22:30:00;88
07.01.2022;22:45:00;90
07.01.2022;23:00:00;64
07.01.2022;23:15:00;44
07.01.2022;23:30:00;47
07.01.2022;23:45:00;48
08.01.2022;00:00:00;49
08.01.2022;00:15:00;46
08.01.2022;00:30:00;46
08.01.2022;00:45:00;51
08.01.2022;01:00:00;54
08.01.2022;01:15:00;53
08.01.2022;01:30:00;55
08.01.2022;01:45:00;51
08.01.2022;02:00:00;53
08.01.2022;02:15:00;53
08.01.2022;02:30:00;55
08.01.2022;02:45:00;53
08.01.2022;03:00:00;53
08.01.2022;03:15:00;56
08.01.2022;03:30:00;53
08.01.2022;03:45:00;53
08.01.2022;04:00:00;52
08.01.2022;04:15:00;51
08.01.2022;04:30:00;52
08.01.2022;04:45:00;53
08.01.2022;05:00:00;51
08.01.2022;05:15:00;37
08.01.2022;05:30:00;33
08.01.2022;05:45:00;28
08.01.2022;06:00:00;25
08.01.2022;06:15:00;21
08.01.2022;06:30:00;17
08.01.2022;06:45:00;16
08.01.2022;07:00:00;23
08.01.2022;07:15:00;59
08.01.2022;07:30:00;62
08.01.2022;07:45:00;62
08.01.2022;08:00:00;60
08.01.2022;08:15:00;58
08.01.2022;08:30:00;57
08.01.2022;08:45:00;57
08.01.2022;09:00:00;57
08.01.2022;09:15:00;59
08.01.2022;09:30:00;60
08.01.2022;09:45:00;61
08.01.2022;10:00:00;60
08.01.2022;10:15:00;57
08.01.2022;10:30:00;60
08.01.2022;10:45:00;62
08.01.2022;11:00:00;66
08.01.2022;11:15:00;84
08.01.2022;11:30:00;98
08.01.2022;11:45:00;98
08.01.2022;12:00:00;102
08.01.2022;12:15:00;129
08.01.2022;12:30:00;135
08.01.2022;12:45:00;114
08.01.2022;13:00:00;121
08.01.2022;13:15:00;124
08.01.2022;13:30:00;156
08.01.2022;13:45:00;203
08.01.2022;14:00:00;223
08.01.2022;14:15:00;196
08.01.2022;14:30:00;177
08.01.2022;14:45:00;148
08.01.2022;15:00:00;79
08.01.2022;15:15:00;64
08.01.2022;15:30:00;47
08.01.2022;15:45:00;34
08.01.2022;16:00:00;25
08.01.2022;16:15:00;22
08.01.2022;16:30:00;23
08.01.2022;16:45:00;24
08.01.2022;17:00:00;23
08.01.2022;17:15:00;23
08.01.2022;17:30:00;21
08.01.2022;17:45:00;24
08.01.2022;18:00:00;19
08.01.2022;18:15:00;28
08.01.2022;18:30:00;16
08.01.2022;18:45:00;20
08.01.2022;19:00:00;16
08.01.2022;19:15:00;26
08.01.2022;19:30:00;20
08.01.2022;19:45:00;27
08.01.2022;20:00:00;21
08.01.2022;20:15:00;23
08.01.2022;20:30:00;23
08.01.2022;20:45:00;27
08.01.2022;21:00:00;22
08.01.2022;21:15:00;27
08.01.2022;21:30:00;26
08.01.2022;21:45:00;30
08.01.2022;22:00:00;27
08.01.2022;22:15:00;44
08.01.2022;22:30:00;56
08.01.2022;22:45:00;89
08.01.2022;23:00:00;86
08.01.2022;23:15:00;91
08.01.2022;23:30:00;88
08.01.2022;23:45:00;94
09.01.2022;00:00:00;87
09.01.2022;00:15:00;88
09.01.2022;00:30:00;93
09.01.2022;00:45:00;95
09.01.2022;01:00:00;92
09.01.2022;01:15:00;98
09.01.2022;01:30:00;97
09.01.2022;01:45:00;99
09.01.2022;02:00:00;95
09.01.2022;02:15:00;99
09.01.2022;02:30:00;92
09.01.2022;02:45:00;94
09.01.2022;03:00:00;100
09.01.2022;03:15:00;94
09.01.2022;03:30:00;99
09.01.2022;03:45:00;96
09.01.2022;04:00:00;99
09.01.2022;04:15:00;94
09.01.2022;04:30:00;96
09.01.2022;04:45:00;97
09.01.2022;05:00:00;95
09.01.2022;05:15:00;79
09.01.2022;05:30:00;77
09.01.2022;05:45:00;67
09.01.2022;06:00:00;69
09.01.2022;06:15:00;70
09.01.2022;06:30:00;30
09.01.2022;06:45:00;11
09.01.2022;07:00:00;13
09.01.2022;07:15:00;13
09.01.2022;07:30:00;10
09.01.2022;07:45:00;10
09.01.2022;08:00:00;14
09.01.2022;08:15:00;12
09.01.2022;08:30:00;12
09.01.2022;08:45:00;21
09.01.2022;09:00:00;33
09.01.2022;09:15:00;42
09.01.2022;09:30:00;69
09.01.2022;09:45:00;109
09.01.2022;10:00:00;117
09.01.2022;10:15:00;100
09.01.2022;10:30:00;130
09.01.2022;10:45:00;79
09.01.2022;11:00:00;91
09.01.2022;11:15:00;154
09.01.2022;11:30:00;189
09.01.2022;11:45:00;237
09.01.2022;12:00:00;75
09.01.2022;12:15:00;71
09.01.2022;12:30:00;40
09.01.2022;12:45:00;35
09.01.2022;13:00:00;40
09.01.2022;13:15:00;33
09.01.2022;13:30:00;36
09.01.2022;13:45:00;28
09.01.2022;14:00:00;57
09.01.2022;14:15:00;70
09.01.2022;14:30:00;70
09.01.2022;14:45:00;67
09.01.2022;15:00:00;69
09.01.2022;15:15:00;58
09.01.2022;15:30:00;56
09.01.2022;15:45:00;50
09.01.2022;16:00:00;54
09.01.2022;16:15:00;68
09.01.2022;16:30:00;69
09.01.2022;16:45:00;67
09.01.2022;17:00:00;61
09.01.2022;17:15:00;68
09.01.2022;17:30:00;67
09.01.2022;17:45:00;68
09.01.2022;18:00:00;75
09.01.2022;18:15:00;69
09.01.2022;18:30:00;68
09.01.2022;18:45:00;67
09.01.2022;19:00:00;63
09.01.2022;19:15:00;70
09.01.2022;19:30:00;68
09.01.2022;19:45:00;56
09.01.2022;20:00:00;18
09.01.2022;20:15:00;33
09.01.2022;20:30:00;28
09.01.2022;20:45:00;28
09.01.2022;21:00:00;27
09.01.2022;21:15:00;30
09.01.2022;21:30:00;30
09.01.2022;21:45:00;30
09.01.2022;22:00:00;32
09.01.2022;22:15:00;39
09.01.2022;22:30:00;45
09.01.2022;22:45:00;38
09.01.2022;23:00:00;44
09.01.2022;23:15:00;44
09.01.2022;23:30:00;40
09.01.2022;23:45:00;44
10.01.2022;00:00:00;40
10.01.2022;00:15:00;43
10.01.2022;00:30:00;45
10.01.2022;00:45:00;49
10.01.2022;01:00:00;48
10.01.2022;01:15:00;54
10.01.2022;01:30:00;47
10.01.2022;01:45:00;51
10.01.2022;02:00:00;50
10.01.2022;02:15:00;52
10.01.2022;02:30:00;51
10.01.2022;02:45:00;48
10.01.2022;03:00:00;57
10.01.2022;03:15:00;50
10.01.2022;03:30:00;51
10.01.2022;03:45:00;52
10.01.2022;04:00:00;51
10.01.2022;04:15:00;52
10.01.2022;04:30:00;50
10.01.2022;04:45:00;46
10.01.2022;05:00:00;42
10.01.2022;05:15:00;28
10.01.2022;05:30:00;15
10.01.2022;05:45:00;46
10.01.2022;06:00:00;66
10.01.2022;06:15:00;64
10.01.2022;06:30:00;63
10.01.2022;06:45:00;62
10.01.2022;07:00:00;58
10.01.2022;07:15:00;54
10.01.2022;07:30:00;52
10.01.2022;07:45:00;52
10.01.2022;08:00:00;51
10.01.2022;08:15:00;51
10.01.2022;08:30:00;54
10.01.2022;08:45:00;55
10.01.2022;09:00:00;64
10.01.2022;09:15:00;60
10.01.2022;09:30:00;60
10.01.2022;09:45:00;61
10.01.2022;10:00:00;69
10.01.2022;10:15:00;80
10.01.2022;10:30:00;79
10.01.2022;10:45:00;100
10.01.2022;11:00:00;142
10.01.2022;11:15:00;102
10.01.2022;11:30:00;118
10.01.2022;11:45:00;88
10.01.2022;12:00:00;92
10.01.2022;12:15:00;92
10.01.2022;12:30:00;88
10.01.2022;12:45:00;75
10.01.2022;13:00:00;33
10.01.2022;13:15:00;34
10.01.2022;13:30:00;33
10.01.2022;13:45:00;31
10.01.2022;14:00:00;23
10.01.2022;14:15:00;21
10.01.2022;14:30:00;19
10.01.2022;14:45:00;16
10.01.2022;15:00:00;12
10.01.2022;15:15:00;13
10.01.2022;15:30:00;21
10.01.2022;15:45:00;22
10.01.2022;16:00:00;13
10.01.2022;16:15:00;10
10.01.2022;16:30:00;6
10.01.2022;16:45:00;5
10.01.2022;17:00:00;6
10.01.2022;17:15:00;2
10.01.2022;17:30:00;4
10.01.2022;17:45:00;4
10.01.2022;18:00:00;4
10.01.2022;18:15:00;5
10.01.2022;18:30:00;4
10.01.2022;18:45:00;1
10.01.2022;19:00:00;1
10.01.2022;19:15:00;7
10.01.2022;19:30:00;3
10.01.2022;19:45:00;4
10.01.2022;20:00:00;10
10.01.2022;20:15:00;16
10.01.2022;20:30:00;8
10.01.2022;20:45:00;10
10.01.2022;21:00:00;16
10.01.2022;21:15:00;17
10.01.2022;21:30:00;21
10.01.2022;21:45:00;21
10.01.2022;22:00:00;22
10.01.2022;22:15:00;37
10.01.2022;22:30:00;76
10.01.2022;22:45:00;84
10.01.2022;23:00:00;80
10.01.2022;23:15:00;84
10.01.2022;23:30:00;86
10.01.2022;23:45:00;89
11.01.2022;00:00:00;89
11.01.2022;00:15:00;87
11.01.2022;00:30:00;86
11.01.2022;00:45:00;92
11.01.2022;01:00:00;91
11.01.2022;01:15:00;93
11.01.2022;01:30:00;88
11.01.2022;01:45:00;84
11.01.2022;02:00:00;88
11.01.2022;02:15:00;92
11.01.2022;02:30:00;89
11.01.2022;02:45:00;92
11.01.2022;03:00:00;83
11.01.2022;03:15:00;85
11.01.2022;03:30:00;89
11.01.2022;03:45:00;90
11.01.2022;04:00:00;91
11.01.2022;04:15:00;92
11.01.2022;04:30:00;58
11.01.2022;04:45:00;26
11.01.2022;05:00:00;28
11.01.2022;05:15:00;25
11.01.2022;05:30:00;23
11.01.2022;05:45:00;26
11.01.2022;06:00:00;18
11.01.2022;06:15:00;8
11.01.2022;06:30:00;4